This demonstration page uses our WeatherBlox Daily Observations layout. Learn more.

Left ArrowRight Arrow

38.20091, -84.87328

Hourly Observations for April 21, 2022

Temp ( °F °C ) Dew Point ( °F °C ) Humidity (%) Winds ( mph kmh ) Pressure ( in mb ) Visibility ( mi km ) Precip ( " mm )
12:53 am 00:53 Cloudy with Light Rain 64 17.8 37 2.8 37 37 S 14 22 30.13 1020 10 16 0.00 0.00
1:53 am 01:53 Cloudy with Light Rain 59 15 45 7.2 60 60 S 10 17 30.14 1021 10 16 0.04 1.02
2:53 am 02:53 Cloudy 59 15 45 7.2 60 60 S 12 19 30.12 1020 10 16 0.00 0.00
3:53 am 03:53 Cloudy 58 14.4 46 7.8 65 65 S 10 17 30.11 1020 10 16 0.00 0.00
4:53 am 04:53 Cloudy 60 15.6 44 6.7 56 56 S 10 17 30.09 1019 10 16 0.00 0.00
5:53 am 05:53 Cloudy 64 17.8 44 6.7 48 48 SSW 16 26 30.09 1019 10 16 0.01 0.25
6:53 am 06:53 Cloudy with Light Rain 60 15.6 48 8.9 65 65 SSW 18 30 30.14 1021 10 16 0.07 1.78
7:53 am 07:53 Cloudy with Rain 58 14.4 50 10 75 75 SSW 14 22 30.17 1022 4 6 0.11 2.79
8:10 am 08:10 Cloudy with Heavy Rain 57 13.9 51 10.6 81 81 SW 12 19 30.20 1023 2 3 0.07 1.78
8:19 am 08:19 Cloudy with Light Rain 57 13.9 51 10.6 81 81 SSW 15 24 30.21 1023 10 16 0.07 1.78
8:53 am 08:53 Cloudy 57 13.9 52 11.1 83 83 SSW 16 26 30.21 1023 10 16 0.07 1.78
9:53 am 09:53 Cloudy 59 15 52 11.1 78 78 SSW 14 22 30.23 1024 10 16 0.00 0.00
10:53 am 10:53 Cloudy 61 16.1 53 11.7 75 75 SW 13 20 30.24 1024 10 16 0.00 0.00
11:53 am 11:53 Cloudy 61 16.1 54 12.2 78 78 WSW 10 17 30.27 1025 10 16 0.00 0.00
12:46 pm 12:46 Cloudy 62 16.7 55 12.8 78 78 SW 10 17 30.28 1025 10 16 0.00 0.00
12:53 pm 12:53 Cloudy 62 16.7 55 12.8 78 78 SW 9 15 30.27 1025 10 16 0.00 0.00
1:53 pm 13:53 Cloudy 64 17.8 55 12.8 73 73 SW 13 20 30.28 1026 10 16 0.00 0.00
2:53 pm 14:53 Cloudy 64 17.8 55 12.8 73 73 SW 14 22 30.29 1026 10 16 0.00 0.00
3:53 pm 15:53 Cloudy 65 18.3 56 13.3 73 73 WSW 9 15 30.29 1026 10 16 0.00 0.00
4:53 pm 16:53 Cloudy 66 18.9 56 13.3 70 70 WSW 9 15 30.29 1026 10 16 0.00 0.00
5:07 pm 17:07 Cloudy 67 19.4 57 13.9 71 71 WSW 12 19 30.28 1025 10 16 0.00 0.00
5:30 pm 17:30 Cloudy 67 19.4 56 13.3 68 68 VRB 5 7 30.29 1026 10 16 0.00 0.00
5:37 pm 17:37 Cloudy 67 19.4 57 13.9 71 71 WSW 9 15 30.29 1026 10 16 0.00 0.00
5:53 pm 17:53 Cloudy 66 18.9 57 13.9 73 73 WSW 7 11 30.30 1026 10 16 0.00 0.00
6:14 pm 18:14 Cloudy 66 18.9 57 13.9 73 73 SW 5 7 30.30 1026 10 16 0.00 0.00
6:36 pm 18:36 Cloudy 67 19.4 57 13.9 71 71 SSW 3 6 30.30 1026 10 16 0.00 0.00
6:53 pm 18:53 Cloudy 67 19.4 57 13.9 71 71 Calm 30.31 1027 10 16 0.00 0.00
7:53 pm 19:53 Mostly Cloudy 64 17.8 56 13.3 75 75 SSW 3 6 30.32 1027 10 16 0.00 0.00
8:53 pm 20:53 Clear 60 15.6 55 12.8 84 84 Calm 30.34 1027 10 16 0.00 0.00
9:53 pm 21:53 Clear 59 15 55 12.8 87 87 Calm 30.36 1028 10 16 0.00 0.00
10:53 pm 22:53 Clear 53 11.7 51 10.6 93 93 Calm 30.36 1028 10 16 0.00 0.00
11:09 pm 23:09 Clear with Mist and Fog 54 12.2 52 11.1 93 93 Calm 30.37 1029 1 2 0.00 0.00
11:14 pm 23:14 Clear with Mist and Fog 55 12.8 52 11.1 90 90 Calm 30.36 1028 4 6 0.00 0.00
11:53 pm 23:53 Partly Cloudy 53 11.7 51 10.6 93 93 Calm 30.36 1028 9 14 0.00 0.00

Powered by AerisWeather